BAW811N EIDW-EGLL

Flight info

Callsign BAW811N
Flight time 1h 8m
Altitude 35000
Route PESIT2J PESIT DCT BAKUR DCT ECCIT DCT GUBJE DCT GISOK DCT TACQI DCT FONZU DCT ELRIP DCT OTMET OTMET1H
Aircraft A320/M-SDE3FGHIJ1RWXY/S

Departure

Time 2026-05-07 19:20
Airport Dublin Airport (EIDW)

Arrival

Time 2026-05-07 20:29
Airport London Heathrow Airport (EGLL)
Time Latitude Longitude Altitude Speed Heading
2026-05-07 18:41 53.42201 -6.23667 198 ft 0 kts 27°
2026-05-07 18:59 53.42200 -6.23668 225 ft 2 kts 27°
2026-05-07 18:59 53.42177 -6.23685 227 ft 4 kts 15°
2026-05-07 19:00 53.42152 -6.23690 226 ft 4 kts 340°
2026-05-07 19:00 53.42138 -6.23674 229 ft 0 kts 296°
2026-05-07 19:08 53.42141 -6.23685 226 ft 3 kts 296°
2026-05-07 19:09 53.42154 -6.23726 226 ft 5 kts 299°
2026-05-07 19:09 53.42181 -6.23788 225 ft 8 kts 309°
2026-05-07 19:09 53.42216 -6.23874 225 ft 10 kts 300°
2026-05-07 19:09 53.42242 -6.23997 225 ft 12 kts 279°
2026-05-07 19:10 53.42229 -6.24145 225 ft 13 kts 235°
2026-05-07 19:10 53.42166 -6.24261 225 ft 14 kts 244°
2026-05-07 19:10 53.42166 -6.24431 225 ft 15 kts 276°
2026-05-07 19:10 53.42175 -6.24603 225 ft 13 kts 275°
2026-05-07 19:11 53.42207 -6.24746 225 ft 15 kts 324°
2026-05-07 19:11 53.42303 -6.24818 226 ft 13 kts 337°
2026-05-07 19:11 53.42395 -6.24885 225 ft 16 kts 336°
2026-05-07 19:11 53.42501 -6.24962 227 ft 17 kts 337°
2026-05-07 19:12 53.42592 -6.25027 226 ft 15 kts 336°
2026-05-07 19:12 53.42674 -6.25087 227 ft 10 kts 336°
2026-05-07 19:12 53.42725 -6.25174 225 ft 12 kts 304°
2026-05-07 19:12 53.42795 -6.25243 225 ft 10 kts 338°
2026-05-07 19:13 53.42869 -6.25294 225 ft 13 kts 336°
2026-05-07 19:13 53.42942 -6.25362 225 ft 10 kts 327°
2026-05-07 19:13 53.42969 -6.25384 226 ft 0 kts 338°
2026-05-07 19:13 53.42971 -6.25386 225 ft 2 kts 337°
2026-05-07 19:14 53.42974 -6.25388 252 ft 0 kts 337°
2026-05-07 19:14 53.42981 -6.25393 252 ft 3 kts 336°
2026-05-07 19:14 53.43007 -6.25412 225 ft 6 kts 336°
2026-05-07 19:14 53.43051 -6.25444 225 ft 8 kts 336°
2026-05-07 19:15 53.43111 -6.25489 226 ft 11 kts 336°
2026-05-07 19:15 53.43188 -6.25544 225 ft 13 kts 336°
2026-05-07 19:15 53.43272 -6.25595 225 ft 13 kts 349°
2026-05-07 19:15 53.43360 -6.25649 225 ft 13 kts 351°
2026-05-07 19:16 53.43407 -6.25539 225 ft 14 kts 97°
2026-05-07 19:16 53.43398 -6.25388 225 ft 14 kts 94°
2026-05-07 19:16 53.43390 -6.25216 225 ft 12 kts 95°
2026-05-07 19:16 53.43383 -6.25084 225 ft 10 kts 95°
2026-05-07 19:17 53.43376 -6.24946 225 ft 13 kts 95°
2026-05-07 19:17 53.43366 -6.24774 225 ft 16 kts 95°
2026-05-07 19:17 53.43354 -6.24570 225 ft 19 kts 95°
2026-05-07 19:17 53.43341 -6.24339 225 ft 21 kts 96°
2026-05-07 19:18 53.43328 -6.24111 224 ft 19 kts 95°
2026-05-07 19:18 53.43319 -6.23945 224 ft 13 kts 94°
2026-05-07 19:18 53.43385 -6.23853 222 ft 16 kts
2026-05-07 19:18 53.43485 -6.23899 216 ft 15 kts 295°
2026-05-07 19:19 53.43492 -6.23955 216 ft 0 kts 279°
2026-05-07 19:19 53.43513 -6.24350 221 ft 71 kts 275°
2026-05-07 19:20 53.43579 -6.25546 225 ft 132 kts 275°
2026-05-07 19:20 53.43682 -6.27347 277 ft 173 kts 277°
2026-05-07 19:20 53.43820 -6.29393 813 ft 178 kts 282°
2026-05-07 19:20 53.44421 -6.31193 1566 ft 184 kts 310°
2026-05-07 19:21 53.45356 -6.32843 1945 ft 203 kts 308°
2026-05-07 19:21 53.46301 -6.34719 2427 ft 219 kts 304°
2026-05-07 19:21 53.47271 -6.36754 3129 ft 232 kts 303°
2026-05-07 19:21 53.48285 -6.39018 3619 ft 253 kts 302°
2026-05-07 19:22 53.49323 -6.41505 4363 ft 264 kts 301°
2026-05-07 19:22 53.50116 -6.44276 5267 ft 265 kts 280°
2026-05-07 19:22 53.50162 -6.47326 6254 ft 262 kts 255°
2026-05-07 19:22 53.49441 -6.50090 7168 ft 261 kts 232°
2026-05-07 19:23 53.48077 -6.52094 8041 ft 264 kts 207°
2026-05-07 19:23 53.46310 -6.52944 8957 ft 269 kts 184°
2026-05-07 19:23 53.44447 -6.52432 9840 ft 277 kts 161°
2026-05-07 19:23 53.42624 -6.51146 10340 ft 295 kts 159°
2026-05-07 19:24 53.40664 -6.49728 10594 ft 318 kts 159°
2026-05-07 19:24 53.38602 -6.48219 11149 ft 327 kts 159°
2026-05-07 19:24 53.36501 -6.46679 11891 ft 332 kts 159°
2026-05-07 19:24 53.34377 -6.45129 12671 ft 335 kts 159°
2026-05-07 19:25 53.32224 -6.43572 13432 ft 338 kts 159°
2026-05-07 19:25 53.30050 -6.42008 14131 ft 342 kts 159°
2026-05-07 19:25 53.27849 -6.40433 14769 ft 346 kts 159°
2026-05-07 19:25 53.25624 -6.38845 15397 ft 350 kts 159°
2026-05-07 19:26 53.23372 -6.37240 16014 ft 354 kts 159°
2026-05-07 19:26 53.21099 -6.35618 16641 ft 357 kts 159°
2026-05-07 19:26 53.18799 -6.33974 17280 ft 361 kts 159°
2026-05-07 19:26 53.16480 -6.32317 17930 ft 365 kts 159°
2026-05-07 19:27 53.14128 -6.30641 18542 ft 369 kts 159°
2026-05-07 19:27 53.11758 -6.28955 19141 ft 372 kts 159°
2026-05-07 19:27 53.09401 -6.27282 19761 ft 374 kts 159°
2026-05-07 19:27 53.06996 -6.25573 20384 ft 377 kts 159°
2026-05-07 19:28 53.04571 -6.23853 20991 ft 380 kts 159°
2026-05-07 19:28 53.02128 -6.22124 21569 ft 384 kts 159°
2026-05-07 19:28 52.99661 -6.20380 22143 ft 387 kts 159°
2026-05-07 19:28 52.97176 -6.18627 22712 ft 390 kts 159°
2026-05-07 19:29 52.94668 -6.16863 23282 ft 393 kts 159°
2026-05-07 19:29 52.92145 -6.15085 23777 ft 396 kts 159°
2026-05-07 19:29 52.89603 -6.13292 24245 ft 398 kts 159°
2026-05-07 19:29 52.87048 -6.11495 24710 ft 400 kts 159°
2026-05-07 19:30 52.84480 -6.09696 25151 ft 402 kts 159°
2026-05-07 19:30 52.81892 -6.07885 25565 ft 405 kts 159°
2026-05-07 19:30 52.79292 -6.06065 25992 ft 407 kts 159°
2026-05-07 19:30 52.76677 -6.04239 26415 ft 409 kts 159°
2026-05-07 19:31 52.74045 -6.02406 26836 ft 411 kts 159°
2026-05-07 19:31 52.71404 -6.00568 27261 ft 413 kts 158°
2026-05-07 19:31 52.68753 -5.98722 27682 ft 415 kts 158°
2026-05-07 19:31 52.66089 -5.96867 28104 ft 417 kts 158°
2026-05-07 19:32 52.63413 -5.95004 28510 ft 419 kts 158°
2026-05-07 19:32 52.60722 -5.93131 28893 ft 421 kts 158°
2026-05-07 19:32 52.58013 -5.91249 29237 ft 424 kts 158°
2026-05-07 19:32 52.55288 -5.89364 29617 ft 426 kts 158°
2026-05-07 19:33 52.52545 -5.87471 29994 ft 429 kts 158°
2026-05-07 19:33 52.49785 -5.85568 30326 ft 431 kts 158°
2026-05-07 19:33 52.47019 -5.83666 30642 ft 433 kts 158°
2026-05-07 19:33 52.44236 -5.81759 30966 ft 434 kts 158°
2026-05-07 19:34 52.41457 -5.79855 31399 ft 432 kts 158°
2026-05-07 19:34 52.38685 -5.77954 31846 ft 431 kts 158°
2026-05-07 19:34 52.35920 -5.76056 32259 ft 431 kts 158°
2026-05-07 19:34 52.33192 -5.74186 32662 ft 431 kts 158°
2026-05-07 19:35 52.30393 -5.72271 33110 ft 430 kts 158°
2026-05-07 19:35 52.27675 -5.70416 33573 ft 429 kts 158°
2026-05-07 19:35 52.24916 -5.68594 34009 ft 427 kts 162°
2026-05-07 19:35 52.22049 -5.67347 34380 ft 426 kts 170°
2026-05-07 19:36 52.19099 -5.66439 34714 ft 426 kts 170°
2026-05-07 19:36 52.16222 -5.65533 34956 ft 428 kts 167°
2026-05-07 19:36 52.10697 -5.61914 35019 ft 432 kts 149°
2026-05-07 19:37 52.05739 -5.56359 35018 ft 433 kts 147°
2026-05-07 19:37 52.00495 -5.51656 35021 ft 431 kts 155°
2026-05-07 19:38 51.95088 -5.47406 35022 ft 431 kts 155°
2026-05-07 19:38 51.89691 -5.43155 35017 ft 432 kts 155°
2026-05-07 19:39 51.84280 -5.38909 35020 ft 432 kts 155°
2026-05-07 19:39 51.78868 -5.34677 35022 ft 432 kts 155°
2026-05-07 19:40 51.73452 -5.30440 35028 ft 433 kts 155°
2026-05-07 19:40 51.68034 -5.26211 35022 ft 433 kts 156°
2026-05-07 19:41 51.62608 -5.22001 35024 ft 433 kts 156°
2026-05-07 19:41 51.57170 -5.17787 35031 ft 434 kts 156°
2026-05-07 19:42 51.51743 -5.13542 35037 ft 435 kts 153°
2026-05-07 19:42 51.46898 -5.07701 35041 ft 438 kts 140°
2026-05-07 19:43 51.42333 -5.01224 35027 ft 438 kts 141°
2026-05-07 19:43 51.37757 -4.94777 35033 ft 438 kts 141°
2026-05-07 19:44 51.33172 -4.88335 35037 ft 438 kts 141°
2026-05-07 19:44 51.28594 -4.81900 35034 ft 438 kts 141°
2026-05-07 19:45 51.24005 -4.75483 35028 ft 439 kts 141°
2026-05-07 19:45 51.19410 -4.69075 35027 ft 439 kts 141°
2026-05-07 19:46 51.14804 -4.62669 35022 ft 439 kts 141°
2026-05-07 19:46 51.10199 -4.56266 35030 ft 440 kts 141°
2026-05-07 19:47 51.05638 -4.49859 35025 ft 441 kts 137°
2026-05-07 19:47 51.01974 -4.42019 35027 ft 446 kts 123°
2026-05-07 19:48 50.98808 -4.33545 35026 ft 446 kts 123°
2026-05-07 19:48 50.95620 -4.25092 35026 ft 446 kts 123°
2026-05-07 19:49 50.92419 -4.16663 35026 ft 446 kts 123°
2026-05-07 19:49 50.89217 -4.08233 35026 ft 447 kts 123°
2026-05-07 19:50 50.86012 -3.99793 35030 ft 447 kts 123°
2026-05-07 19:50 50.82831 -3.91338 35036 ft 448 kts 119°
2026-05-07 19:51 50.80615 -3.82101 35033 ft 451 kts 110°
2026-05-07 19:51 50.78660 -3.72691 35043 ft 451 kts 110°
2026-05-07 19:52 50.76687 -3.63277 35050 ft 451 kts 110°
2026-05-07 19:52 50.74694 -3.53875 35058 ft 452 kts 110°
2026-05-07 19:53 50.72690 -3.44476 35062 ft 452 kts 110°
2026-05-07 19:53 50.70687 -3.35089 35066 ft 452 kts 110°
2026-05-07 19:54 50.68680 -3.25690 35062 ft 452 kts 110°
2026-05-07 19:54 50.66666 -3.16301 35059 ft 452 kts 111°
2026-05-07 19:55 50.64628 -3.06923 34772 ft 452 kts 110°
2026-05-07 19:55 50.64038 -3.03747 34028 ft 461 kts 104°
2026-05-07 19:55 50.63559 -2.98685 32734 ft 473 kts 94°
2026-05-07 19:56 50.63627 -2.93505 31946 ft 472 kts 85°
2026-05-07 19:56 50.64132 -2.88447 31455 ft 465 kts 81°
2026-05-07 19:56 50.64694 -2.83450 30861 ft 461 kts 81°
2026-05-07 19:56 50.65237 -2.78501 30280 ft 457 kts 81°
2026-05-07 19:57 50.65774 -2.73582 29641 ft 453 kts 81°
2026-05-07 19:57 50.66309 -2.68715 29115 ft 446 kts 81°
2026-05-07 19:57 50.66834 -2.63941 28655 ft 439 kts 81°
2026-05-07 19:57 50.67354 -2.59229 28129 ft 434 kts 81°
2026-05-07 19:58 50.67863 -2.54555 27582 ft 430 kts 82°
2026-05-07 19:58 50.68095 -2.49887 27049 ft 425 kts 92°
2026-05-07 19:58 50.67933 -2.45262 26521 ft 421 kts 95°
2026-05-07 19:58 50.67733 -2.40687 26201 ft 418 kts 95°
2026-05-07 19:59 50.67541 -2.36118 25911 ft 418 kts 95°
2026-05-07 19:59 50.67356 -2.31611 25607 ft 417 kts 95°
2026-05-07 19:59 50.67167 -2.27054 25309 ft 415 kts 95°
2026-05-07 19:59 50.66976 -2.22522 25019 ft 414 kts 95°
2026-05-07 20:00 50.66779 -2.18012 24731 ft 412 kts 95°
2026-05-07 20:00 50.66577 -2.13465 24438 ft 410 kts 95°
2026-05-07 20:00 50.66379 -2.09048 24144 ft 408 kts 95°
2026-05-07 20:00 50.66178 -2.04605 23884 ft 406 kts 95°
2026-05-07 20:01 50.66120 -2.00166 23617 ft 405 kts 90°
2026-05-07 20:01 50.66183 -1.95731 23312 ft 403 kts 90°
2026-05-07 20:01 50.66240 -1.91322 23006 ft 402 kts 90°
2026-05-07 20:01 50.66290 -1.86931 22705 ft 400 kts 90°
2026-05-07 20:02 50.66338 -1.82558 22403 ft 398 kts 90°
2026-05-07 20:02 50.66384 -1.78207 22107 ft 397 kts 90°
2026-05-07 20:02 50.66427 -1.73869 21813 ft 395 kts 90°
2026-05-07 20:02 50.66466 -1.69559 21523 ft 393 kts 90°
2026-05-07 20:03 50.66504 -1.65259 21240 ft 391 kts 90°
2026-05-07 20:03 50.66546 -1.60984 21037 ft 389 kts 90°
2026-05-07 20:03 50.66740 -1.56730 21064 ft 390 kts 82°
2026-05-07 20:03 50.67399 -1.52581 21062 ft 392 kts 71°
2026-05-07 20:04 50.68468 -1.48754 20902 ft 382 kts 64°
2026-05-07 20:04 50.69633 -1.45020 20495 ft 377 kts 64°
2026-05-07 20:04 50.70783 -1.41320 20041 ft 374 kts 64°
2026-05-07 20:04 50.71919 -1.37646 19595 ft 372 kts 64°
2026-05-07 20:05 50.73044 -1.33988 19145 ft 369 kts 64°
2026-05-07 20:05 50.74160 -1.30357 18719 ft 367 kts 64°
2026-05-07 20:05 50.75338 -1.26802 18291 ft 364 kts 58°
2026-05-07 20:05 50.76876 -1.23644 17811 ft 361 kts 46°
2026-05-07 20:06 50.78746 -1.21025 17346 ft 358 kts 35°
2026-05-07 20:06 50.80817 -1.18866 16887 ft 355 kts 32°
2026-05-07 20:06 50.82879 -1.16755 16437 ft 353 kts 33°
2026-05-07 20:06 50.84929 -1.14642 15997 ft 350 kts 33°
2026-05-07 20:07 50.86959 -1.12541 15565 ft 347 kts 33°
2026-05-07 20:07 50.88971 -1.10451 15146 ft 345 kts 33°
2026-05-07 20:07 50.90971 -1.08373 14728 ft 342 kts 33°
2026-05-07 20:07 50.92955 -1.06316 14317 ft 340 kts 34°
2026-05-07 20:08 50.94927 -1.04273 13912 ft 338 kts 34°
2026-05-07 20:08 50.96886 -1.02241 13465 ft 335 kts 34°
2026-05-07 20:08 50.98828 -1.00221 13094 ft 332 kts 34°
2026-05-07 20:08 51.00670 -0.98047 12694 ft 329 kts 43°
2026-05-07 20:09 51.02240 -0.95422 12245 ft 327 kts 50°
2026-05-07 20:09 51.03746 -0.92731 11827 ft 325 kts 49°
2026-05-07 20:09 51.05246 -0.90064 11431 ft 323 kts 49°
2026-05-07 20:10 51.08219 -0.84780 10621 ft 319 kts 49°
2026-05-07 20:10 51.09692 -0.82156 10219 ft 317 kts 49°
2026-05-07 20:10 51.11133 -0.79582 9833 ft 315 kts 49°
2026-05-07 20:10 51.12584 -0.76986 9405 ft 313 kts 49°
2026-05-07 20:11 51.14026 -0.74408 8996 ft 310 kts 49°
2026-05-07 20:11 51.15447 -0.71864 8744 ft 302 kts 49°
2026-05-07 20:11 51.16818 -0.69405 8611 ft 292 kts 49°
2026-05-07 20:11 51.18151 -0.67017 8369 ft 286 kts 49°
2026-05-07 20:12 51.19459 -0.64666 8116 ft 282 kts 49°
2026-05-07 20:12 51.20767 -0.62313 8048 ft 283 kts 49°
2026-05-07 20:12 51.22076 -0.59954 8056 ft 284 kts 49°
2026-05-07 20:12 51.23385 -0.57594 8056 ft 284 kts 49°
2026-05-07 20:13 51.24693 -0.55230 8058 ft 284 kts 49°
2026-05-07 20:13 51.25987 -0.52887 8058 ft 283 kts 49°
2026-05-07 20:13 51.27260 -0.50583 8055 ft 269 kts 50°
2026-05-07 20:13 51.28470 -0.48396 8057 ft 256 kts 49°
2026-05-07 20:14 51.29633 -0.46293 8057 ft 251 kts 49°
2026-05-07 20:14 51.30789 -0.44199 8060 ft 252 kts 51°
2026-05-07 20:14 51.31614 -0.41777 8078 ft 249 kts 76°
2026-05-07 20:14 51.31995 -0.39079 8078 ft 249 kts 80°
2026-05-07 20:15 51.32309 -0.36355 8080 ft 249 kts 81°
2026-05-07 20:15 51.32619 -0.33637 8078 ft 249 kts 81°
2026-05-07 20:15 51.32924 -0.30910 8061 ft 249 kts 81°
2026-05-07 20:15 51.33224 -0.28192 8062 ft 249 kts 80°
2026-05-07 20:16 51.33892 -0.25663 8061 ft 250 kts 51°
2026-05-07 20:16 51.35243 -0.24013 8058 ft 251 kts 21°
2026-05-07 20:16 51.36953 -0.23662 8059 ft 250 kts 349°
2026-05-07 20:16 51.38529 -0.24735 8059 ft 248 kts 319°
2026-05-07 20:17 51.39548 -0.26884 7817 ft 242 kts 288°
2026-05-07 20:17 51.39936 -0.29494 7494 ft 241 kts 277°
2026-05-07 20:17 51.40177 -0.32146 7194 ft 240 kts 276°
2026-05-07 20:17 51.40395 -0.34779 7055 ft 239 kts 276°
2026-05-07 20:18 51.40610 -0.37415 7053 ft 239 kts 276°
2026-05-07 20:18 51.40780 -0.40069 7054 ft 239 kts 268°
2026-05-07 20:18 51.40642 -0.42717 7056 ft 239 kts 262°
2026-05-07 20:18 51.40425 -0.45319 7058 ft 239 kts 261°
2026-05-07 20:19 51.40194 -0.47985 7057 ft 239 kts 261°
2026-05-07 20:19 51.39966 -0.50611 7055 ft 239 kts 261°
2026-05-07 20:19 51.39740 -0.53208 7057 ft 239 kts 261°
2026-05-07 20:19 51.39512 -0.55832 6909 ft 237 kts 261°
2026-05-07 20:20 51.39282 -0.58437 6619 ft 236 kts 261°
2026-05-07 20:20 51.39047 -0.61061 6321 ft 234 kts 261°
2026-05-07 20:20 51.38815 -0.63602 6037 ft 233 kts 261°
2026-05-07 20:20 51.38576 -0.66194 5726 ft 232 kts 261°
2026-05-07 20:21 51.38344 -0.68706 5433 ft 231 kts 261°
2026-05-07 20:21 51.38128 -0.71240 5147 ft 229 kts 266°
2026-05-07 20:21 51.38109 -0.73785 4846 ft 228 kts 270°
2026-05-07 20:21 51.38145 -0.76314 4538 ft 226 kts 271°
2026-05-07 20:22 51.38187 -0.78835 4199 ft 226 kts 271°
2026-05-07 20:22 51.38251 -0.81345 3993 ft 226 kts 277°
2026-05-07 20:22 51.38875 -0.83617 3968 ft 228 kts 311°
2026-05-07 20:22 51.40200 -0.84990 3977 ft 232 kts 343°
2026-05-07 20:23 51.41761 -0.85234 3977 ft 219 kts 359°
2026-05-07 20:23 51.43227 -0.85183 3999 ft 202 kts
2026-05-07 20:23 51.44520 -0.84557 3977 ft 194 kts 35°
2026-05-07 20:23 51.45386 -0.82943 3716 ft 193 kts 57°
2026-05-07 20:24 51.46066 -0.81090 3442 ft 192 kts 60°
2026-05-07 20:24 51.46716 -0.79231 3173 ft 191 kts 60°
2026-05-07 20:24 51.47353 -0.77366 3008 ft 192 kts 65°
2026-05-07 20:24 51.47611 -0.75298 2982 ft 190 kts 90°
2026-05-07 20:25 51.47621 -0.73170 2977 ft 191 kts 90°
2026-05-07 20:25 51.47634 -0.71033 2846 ft 192 kts 90°
2026-05-07 20:25 51.47647 -0.68940 2623 ft 184 kts 90°
2026-05-07 20:25 51.47658 -0.66943 2381 ft 174 kts 90°
2026-05-07 20:26 51.47669 -0.65028 2152 ft 171 kts 90°
2026-05-07 20:26 51.47679 -0.63141 1925 ft 168 kts 90°
2026-05-07 20:26 51.47689 -0.61270 1695 ft 168 kts 90°
2026-05-07 20:26 51.47698 -0.59396 1468 ft 168 kts 90°
2026-05-07 20:27 51.47708 -0.57535 1240 ft 166 kts 90°
2026-05-07 20:27 51.47716 -0.55737 1011 ft 156 kts 90°
2026-05-07 20:27 51.47724 -0.54063 801 ft 145 kts 90°
2026-05-07 20:27 51.47732 -0.52490 609 ft 138 kts 91°
2026-05-07 20:28 51.47745 -0.50955 409 ft 136 kts 90°
2026-05-07 20:28 51.47751 -0.49445 230 ft 135 kts 91°
2026-05-07 20:28 51.47749 -0.47938 94 ft 131 kts 90°
2026-05-07 20:28 51.47755 -0.46743 97 ft 82 kts 89°
2026-05-07 20:29 51.47756 -0.46017 91 ft 55 kts 90°
2026-05-07 20:29 51.47759 -0.45469 90 ft 42 kts 90°
2026-05-07 20:29 51.47727 -0.45194 93 ft 15 kts 156°
2026-05-07 20:29 51.47642 -0.45175 92 ft 10 kts 184°
2026-05-07 20:30 51.47601 -0.45231 92 ft 8 kts 249°
2026-05-07 20:30 51.47599 -0.45250 91 ft 0 kts 259°
2026-05-07 20:31 51.47599 -0.45252 91 ft 1 kts 259°
2026-05-07 20:31 51.47597 -0.45284 91 ft 5 kts 266°
2026-05-07 20:32 51.47597 -0.45395 90 ft 13 kts 270°
2026-05-07 20:32 51.47598 -0.45568 88 ft 18 kts 270°
2026-05-07 20:32 51.47601 -0.45782 88 ft 21 kts 271°
2026-05-07 20:32 51.47597 -0.46027 89 ft 24 kts 265°
2026-05-07 20:33 51.47592 -0.46291 92 ft 23 kts 272°
2026-05-07 20:33 51.47595 -0.46527 95 ft 19 kts 271°
2026-05-07 20:33 51.47595 -0.46746 95 ft 20 kts 271°
2026-05-07 20:33 51.47594 -0.46981 93 ft 22 kts 267°
2026-05-07 20:34 51.47585 -0.47245 89 ft 25 kts 268°
2026-05-07 20:34 51.47582 -0.47536 90 ft 27 kts 270°
2026-05-07 20:34 51.47581 -0.47788 92 ft 21 kts 269°
2026-05-07 20:34 51.47580 -0.47980 90 ft 13 kts 270°
2026-05-07 20:35 51.47580 -0.48123 93 ft 12 kts 271°
2026-05-07 20:35 51.47581 -0.48263 95 ft 13 kts 269°
2026-05-07 20:35 51.47578 -0.48408 96 ft 13 kts 262°
2026-05-07 20:35 51.47507 -0.48476 92 ft 14 kts 181°
2026-05-07 20:36 51.47400 -0.48476 88 ft 17 kts 180°
2026-05-07 20:36 51.47312 -0.48472 87 ft 11 kts 180°
2026-05-07 20:36 51.47268 -0.48527 90 ft 7 kts 264°
2026-05-07 20:36 51.47271 -0.48576 89 ft 3 kts 274°
2026-05-07 20:37 51.47271 -0.48582 88 ft 0 kts 272°